TimeCDT,TemperatureF,Dew PointF,Humidity,Sea Level PressureIn,VisibilityMPH,Wind Direction,Wind SpeedMPH,Gust SpeedMPH,PrecipitationIn,Events,Conditions,WindDirDegrees,DateUTC
12:15 AM,43.7,35.8,74,29.91,10.0,East,3.5,-,N/A,,Overcast,80,2013-10-22 05:15:00
12:35 AM,43.7,35.8,74,29.91,10.0,East,4.6,-,N/A,,Overcast,80,2013-10-22 05:35:00
12:55 AM,43.0,36.0,76,29.90,10.0,ENE,3.5,-,N/A,,Overcast,70,2013-10-22 05:55:00
1:15 AM,42.3,35.4,77,29.90,10.0,SE,3.5,-,N/A,,Scattered Clouds,130,2013-10-22 06:15:00
1:35 AM,42.1,35.6,78,29.89,10.0,Calm,Calm,-,N/A,,Clear,0,2013-10-22 06:35:00
1:55 AM,41.9,35.8,79,29.88,10.0,Calm,Calm,-,N/A,,Scattered Clouds,0,2013-10-22 06:55:00
2:15 AM,41.5,36.0,81,29.88,10.0,Calm,Calm,-,N/A,,Clear,0,2013-10-22 07:15:00
2:35 AM,41.5,36.5,82,29.89,10.0,NNE,3.5,-,N/A,,Mostly Cloudy,20,2013-10-22 07:35:00
2:55 AM,41.7,36.1,81,29.88,10.0,Calm,Calm,-,N/A,,Mostly Cloudy,0,2013-10-22 07:55:00
3:15 AM,41.5,36.7,83,29.88,10.0,North,5.8,-,N/A,,Mostly Cloudy,10,2013-10-22 08:15:00
3:35 AM,41.9,36.9,82,29.88,10.0,NNW,3.5,-,N/A,,Light Drizzle,340,2013-10-22 08:35:00
3:55 AM,41.9,36.9,82,29.87,10.0,North,3.5,-,N/A,,Overcast,350,2013-10-22 08:55:00
4:15 AM,41.4,36.7,83,29.86,10.0,NNE,5.8,-,N/A,,Mostly Cloudy,20,2013-10-22 09:15:00
4:35 AM,41.5,36.9,83,29.86,10.0,NNE,5.8,-,N/A,,Overcast,20,2013-10-22 09:35:00
4:55 AM,41.0,36.5,84,29.85,10.0,Calm,Calm,-,N/A,,Mostly Cloudy,0,2013-10-22 09:55:00
5:15 AM,40.6,36.9,86,29.85,10.0,NNE,3.5,-,N/A,,Overcast,30,2013-10-22 10:15:00
5:35 AM,40.8,36.7,85,29.85,10.0,Calm,Calm,-,N/A,,Mostly Cloudy,0,2013-10-22 10:35:00
5:55 AM,39.9,36.0,86,29.86,10.0,Calm,Calm,-,N/A,,Clear,0,2013-10-22 10:55:00
6:15 AM,38.7,35.1,87,29.86,10.0,West,3.5,-,N/A,,Clear,270,2013-10-22 11:15:00
6:35 AM,38.8,35.4,88,29.86,10.0,Calm,Calm,-,N/A,,Scattered Clouds,0,2013-10-22 11:35:00
6:55 AM,38.3,35.6,90,29.87,10.0,West,4.6,-,N/A,,Scattered Clouds,280,2013-10-22 11:55:00
7:15 AM,38.3,35.8,91,29.87,10.0,WNW,5.8,-,N/A,,Mostly Cloudy,290,2013-10-22 12:15:00
7:35 AM,39.2,36.5,90,29.87,10.0,NW,3.5,-,N/A,,Overcast,310,2013-10-22 12:35:00
7:55 AM,39.0,36.7,91,29.88,10.0,NW,4.6,-,N/A,,Overcast,320,2013-10-22 12:55:00
8:15 AM,41.0,38.1,89,29.88,7.0,NNW,6.9,-,N/A,,Overcast,340,2013-10-22 13:15:00
8:35 AM,42.1,38.7,88,29.89,10.0,North,8.1,-,N/A,,Overcast,350,2013-10-22 13:35:00
8:55 AM,42.8,39.2,87,29.90,10.0,North,10.4,-,N/A,,Overcast,350,2013-10-22 13:55:00
9:15 AM,43.3,39.0,85,29.92,10.0,NNW,8.1,-,N/A,,Overcast,330,2013-10-22 14:15:00
9:35 AM,43.9,39.6,85,29.93,10.0,NW,8.1,-,N/A,,Overcast,320,2013-10-22 14:35:00
9:55 AM,44.6,40.5,85,29.94,10.0,NNW,9.2,-,N/A,,Overcast,330,2013-10-22 14:55:00
10:15 AM,45.0,41.2,87,29.95,10.0,NNW,9.2,-,N/A,,Overcast,330,2013-10-22 15:15:00
10:35 AM,44.8,40.8,86,29.96,10.0,NNW,12.7,17.3,N/A,,Overcast,340,2013-10-22 15:35:00
10:55 AM,45.0,41.2,87,29.96,10.0,NNW,10.4,-,N/A,,Overcast,340,2013-10-22 15:55:00
11:15 AM,45.9,40.3,81,29.96,10.0,NNW,11.5,-,N/A,,Overcast,330,2013-10-22 16:15:00
11:35 AM,44.6,39.2,81,29.97,10.0,NNW,12.7,19.6,N/A,,Overcast,330,2013-10-22 16:35:00
11:55 AM,43.0,38.5,84,29.98,7.0,NNW,16.1,20.7,N/A,,Overcast,330,2013-10-22 16:55:00
12:15 PM,43.9,38.3,81,29.99,10.0,NNW,10.4,-,N/A,,Overcast,330,2013-10-22 17:15:00
12:35 PM,43.3,37.8,81,30.00,10.0,NNW,12.7,17.3,N/A,,Overcast,340,2013-10-22 17:35:00
12:55 PM,43.7,37.6,79,30.00,10.0,NNW,11.5,16.1,N/A,,Overcast,340,2013-10-22 17:55:00
1:15 PM,44.1,37.4,77,30.01,10.0,NNW,12.7,18.4,N/A,,Overcast,330,2013-10-22 18:15:00
1:35 PM,42.3,35.8,78,30.01,10.0,North,13.8,20.7,N/A,,Overcast,350,2013-10-22 18:35:00
1:55 PM,42.8,35.6,76,30.01,10.0,NNW,11.5,16.1,N/A,,Overcast,340,2013-10-22 18:55:00
2:15 PM,42.6,35.2,75,30.01,10.0,North,11.5,-,N/A,,Overcast,350,2013-10-22 19:15:00
2:35 PM,42.1,34.9,76,30.01,10.0,NNW,11.5,-,N/A,,Overcast,330,2013-10-22 19:35:00
2:55 PM,42.3,34.7,75,30.01,10.0,NNW,11.5,-,N/A,,Overcast,330,2013-10-22 19:55:00
3:15 PM,42.6,34.3,73,30.02,10.0,NNW,13.8,19.6,N/A,,Overcast,330,2013-10-22 20:15:00
3:35 PM,43.0,35.1,74,30.02,10.0,NNW,12.7,-,N/A,,Overcast,340,2013-10-22 20:35:00
3:55 PM,42.3,34.2,73,30.03,10.0,North,11.5,17.3,N/A,,Overcast,350,2013-10-22 20:55:00
4:15 PM,42.3,34.7,75,30.04,10.0,North,10.4,18.4,N/A,,Overcast,350,2013-10-22 21:15:00
4:35 PM,42.1,34.5,75,30.05,10.0,NNW,10.4,-,N/A,,Overcast,330,2013-10-22 21:35:00
4:55 PM,41.9,34.2,74,30.06,7.0,NNW,9.2,16.1,N/A,,Overcast,330,2013-10-22 21:55:00
5:15 PM,41.9,33.8,73,30.07,7.0,NNW,8.1,-,N/A,,Overcast,330,2013-10-22 22:15:00
5:35 PM,41.5,34.0,75,30.07,10.0,North,11.5,-,N/A,,Overcast,350,2013-10-22 22:35:00
5:55 PM,41.2,34.0,76,30.08,10.0,North,8.1,-,N/A,,Overcast,350,2013-10-22 22:55:00
6:15 PM,41.0,33.8,76,30.08,10.0,NNW,10.4,-,N/A,,Overcast,340,2013-10-22 23:15:00
6:35 PM,40.5,33.4,76,30.08,10.0,NNW,11.5,-,N/A,,Overcast,330,2013-10-22 23:35:00
6:55 PM,40.3,33.1,75,30.08,10.0,NNW,13.8,17.3,N/A,,Overcast,340,2013-10-22 23:55:00
7:15 PM,40.1,32.7,75,30.09,10.0,NNW,11.5,-,N/A,,Overcast,330,2013-10-23 00:15:00
7:35 PM,40.1,32.4,74,30.10,10.0,NNW,9.2,-,N/A,,Overcast,330,2013-10-23 00:35:00
7:55 PM,40.1,32.4,74,30.10,10.0,NW,6.9,-,N/A,,Overcast,310,2013-10-23 00:55:00
8:15 PM,39.7,32.2,74,30.10,10.0,WNW,5.8,-,N/A,,Overcast,300,2013-10-23 01:15:00
8:35 PM,39.7,32.0,74,30.10,10.0,NW,5.8,-,N/A,,Overcast,320,2013-10-23 01:35:00
8:55 PM,39.7,32.0,74,30.10,10.0,NNW,8.1,-,N/A,,Overcast,340,2013-10-23 01:55:00
9:15 PM,39.6,32.0,74,30.10,10.0,North,5.8,-,N/A,,Overcast,350,2013-10-23 02:15:00
9:35 PM,39.4,32.0,75,30.10,10.0,NNW,5.8,-,N/A,,Overcast,330,2013-10-23 02:35:00
10:15 PM,39.2,32.0,75,30.11,10.0,NW,6.9,-,N/A,,Overcast,320,2013-10-23 03:15:00
10:35 PM,39.2,32.2,76,30.11,10.0,NW,5.8,-,N/A,,Overcast,320,2013-10-23 03:35:00
10:55 PM,38.8,32.2,77,30.10,10.0,North,4.6,-,N/A,,Overcast,10,2013-10-23 03:55:00
11:15 PM,38.7,32.5,79,30.10,10.0,NNW,4.6,-,N/A,,Overcast,340,2013-10-23 04:15:00
11:35 PM,38.5,32.7,80,30.11,10.0,Calm,Calm,-,N/A,,Overcast,0,2013-10-23 04:35:00
11:55 PM,38.3,32.5,80,30.10,10.0,Calm,Calm,-,N/A,,Overcast,0,2013-10-23 04:55:00